Weather History for PAHP - February, 2014

Change the Weather History Date:

Tuesday, February 25, 2014

  Actual Average Record
Temperature  
Mean Temperature 32 °F -  
Max Temperature 35 °F 17 °F 35 °F (2014)
Min Temperature 28 °F 9 °F -4 °F (1999)
Degree Days  
Heating Degree Days 34    
Moisture  
Dew Point 22 °F    
Average Humidity 67    
Maximum Humidity 75    
Minimum Humidity 60    
Precipitation  
Precipitation 0.00 in - - ()
Sea Level Pressure  
Sea Level Pressure 29.83 in    
Wind  
Wind Speed 17 mph (East)    
Max Wind Speed 24 mph    
Max Gust Speed 23 mph    
Visibility 9 miles    
Events      
Averages and records for this station are not official NWS values.
T = Trace of Precipitation, MM = Missing Value Source: NWS Daily Summary

Daily Weather History Graph

Daily Weather History Graph

Search for Another Location

Airport or City:

Trip Planner

Search our weather history database for the weather conditions in past years. The results will help you decide how hot, cold, wet, or windy it might be!

Date:

Astronomy

Feb. 25, 2014 Rise Set
Actual Time 9:17 AM AKST 7:18 PM AKST
Civil Twilight 8:33 AM AKST 8:03 PM AKST
Nautical Twilight 7:42 AM AKST 8:53 PM AKST
Astronomical Twilight 6:51 AM AKST 9:45 PM AKST
Moon 7:14 AM AKST (2/25) 2:51 PM AKST (2/25)
Length of Visible Light 11h 30m
Length of Day
10h 01m
Waning Crescent, 17% of the Moon is Illuminated
Feb 25
Waning Crescent
Feb 28
New
Mar 8
First Quarter
Mar 16
Full
Mar 23
Last Quarter

Hourly Weather History & Observations

Time (AKST) Temp. Windchill Dew Point Humidity Pressure Visibility Wind Dir Wind Speed Gust Speed Precip Events Conditions
12:16 AM 35.6 °F 25.5 °F 24.8 °F 65% 29.80 in 5.0 mi ESE 17.3 mph - N/A   Overcast
12:36 AM 35.6 °F 25.5 °F 24.8 °F 65% 29.80 in 8.0 mi East 17.3 mph - N/A   Overcast
12:56 AM 33.8 °F 23.9 °F 24.8 °F 70% 29.81 in 7.0 mi East 15.0 mph - N/A   Overcast
1:16 AM 33.8 °F 24.3 °F 24.8 °F 70% 29.81 in 5.0 mi East 13.8 mph - N/A   Overcast
1:36 AM 32.0 °F 20.8 °F 23.0 °F 69% 29.81 in 5.0 mi East 17.3 mph - N/A   Overcast
1:56 AM 30.2 °F 18.1 °F 21.2 °F 69% 29.81 in 8.0 mi East 18.4 mph - N/A   Overcast
2:16 AM 30.2 °F 18.9 °F 21.2 °F 69% 29.82 in 9.0 mi East 16.1 mph - N/A   Overcast
2:36 AM 30.2 °F 18.5 °F 21.2 °F 69% 29.82 in 9.0 mi East 17.3 mph - N/A   Overcast
2:56 AM 30.2 °F 18.1 °F 21.2 °F 69% 29.83 in 7.0 mi East 18.4 mph - N/A   Overcast
3:16 AM 30.2 °F 18.9 °F 21.2 °F 69% 29.83 in 3.0 mi East 16.1 mph - N/A   Overcast
3:36 AM 28.4 °F 16.2 °F 19.4 °F 69% 29.83 in 5.0 mi East 17.3 mph - N/A   Overcast
3:56 AM 28.4 °F 15.8 °F 19.4 °F 69% 29.84 in 10.0 mi East 18.4 mph - N/A   Overcast
4:16 AM 28.4 °F 15.8 °F 21.2 °F 74% 29.84 in 10.0 mi East 18.4 mph - N/A   Overcast
4:36 AM 28.4 °F 17.0 °F 19.4 °F 69% 29.84 in 10.0 mi East 15.0 mph - N/A   Overcast
4:56 AM 28.4 °F 17.5 °F 21.2 °F 74% 29.84 in 10.0 mi East 13.8 mph - N/A   Overcast
5:16 AM 28.4 °F 16.6 °F 21.2 °F 74% 29.84 in 10.0 mi East 16.1 mph - N/A   Overcast
5:36 AM 30.2 °F 18.9 °F 21.2 °F 69% 29.83 in 10.0 mi East 16.1 mph - N/A   Overcast
5:56 AM 30.2 °F 19.3 °F 21.2 °F 69% 29.83 in 10.0 mi ENE 15.0 mph - N/A   Overcast
6:16 AM 30.2 °F 18.9 °F 21.2 °F 69% 29.84 in 10.0 mi East 16.1 mph - N/A   Overcast
6:36 AM 30.2 °F 18.5 °F 21.2 °F 69% 29.84 in 4.0 mi East 17.3 mph - N/A   Overcast
6:56 AM 30.2 °F 18.5 °F 21.2 °F 69% 29.85 in 8.0 mi East 17.3 mph - N/A   Overcast
7:16 AM 30.2 °F 18.9 °F 21.2 °F 69% 29.85 in 10.0 mi East 16.1 mph - N/A   Overcast
7:36 AM 32.0 °F 20.8 °F 24.8 °F 75% 29.86 in 3.0 mi East 17.3 mph - N/A   Overcast
7:56 AM 33.8 °F 23.5 °F 24.8 °F 70% 29.86 in 3.0 mi East 16.1 mph - N/A   Overcast
8:16 AM 33.8 °F 23.9 °F 24.8 °F 70% 29.87 in 5.0 mi East 15.0 mph - N/A   Overcast
8:36 AM 33.8 °F 23.5 °F 24.8 °F 70% 29.87 in 10.0 mi East 16.1 mph - N/A   Overcast
8:56 AM 33.8 °F 23.5 °F 24.8 °F 70% 29.87 in 10.0 mi East 16.1 mph - N/A   Overcast
9:16 AM 33.8 °F 22.8 °F 24.8 °F 70% 29.88 in 8.0 mi East 18.4 mph 23.0 mph N/A   Mostly Cloudy
9:36 AM 33.8 °F 23.5 °F 24.8 °F 70% 29.88 in 7.0 mi East 16.1 mph - N/A   Mostly Cloudy
9:56 AM 33.8 °F 23.2 °F 23.0 °F 65% 29.89 in 5.0 mi East 17.3 mph - N/A   Mostly Cloudy
10:16 AM 33.8 °F 23.2 °F 24.8 °F 70% 29.89 in 5.0 mi East 17.3 mph - N/A   Overcast
10:36 AM 32.0 °F 20.5 °F 21.2 °F 64% 29.89 in 10.0 mi East 18.4 mph - N/A   Overcast
10:56 AM 32.0 °F 21.6 °F 24.8 °F 75% 29.90 in 10.0 mi East 15.0 mph - N/A   Overcast
11:16 AM 32.0 °F 21.2 °F 21.2 °F 64% 29.90 in 10.0 mi East 16.1 mph - N/A   Overcast
11:36 AM 30.2 °F 18.1 °F 21.2 °F 69% 29.90 in 10.0 mi East 18.4 mph - N/A   Overcast
11:56 AM 32.0 °F 20.8 °F 24.8 °F 75% 29.90 in 10.0 mi East 17.3 mph - N/A   Overcast
12:16 PM 33.8 °F 23.9 °F 21.2 °F 60% 29.90 in 10.0 mi East 15.0 mph - N/A   Overcast
12:36 PM 33.8 °F 23.9 °F 21.2 °F 60% 29.90 in 10.0 mi East 15.0 mph - N/A   Overcast
12:56 PM 32.0 °F 21.6 °F 24.8 °F 75% 29.90 in 10.0 mi East 15.0 mph - N/A   Overcast
1:16 PM 32.0 °F 22.1 °F 21.2 °F 64% 29.90 in 10.0 mi ENE 13.8 mph - N/A   Mostly Cloudy
1:36 PM 33.8 °F 23.2 °F 21.2 °F 60% 29.90 in 10.0 mi East 17.3 mph - N/A   Mostly Cloudy
1:56 PM 33.8 °F 23.9 °F 24.8 °F 70% 29.91 in 10.0 mi East 15.0 mph - N/A   Overcast
2:16 PM 33.8 °F 23.2 °F 24.8 °F 70% 29.90 in 10.0 mi East 17.3 mph - N/A   Overcast
2:36 PM 33.8 °F 23.2 °F 23.0 °F 65% 29.89 in 10.0 mi East 17.3 mph - N/A   Mostly Cloudy
2:56 PM 33.8 °F 22.5 °F 24.8 °F 70% 29.88 in 10.0 mi East 19.6 mph - N/A   Mostly Cloudy
3:16 PM 33.8 °F 23.2 °F 23.0 °F 65% 29.88 in 10.0 mi East 17.3 mph - N/A   Mostly Cloudy
3:36 PM 33.8 °F 22.2 °F 23.0 °F 65% 29.87 in 10.0 mi East 20.7 mph - N/A   Mostly Cloudy
3:56 PM 33.8 °F 21.9 °F 23.0 °F 65% 29.86 in 10.0 mi East 21.9 mph - N/A   Partly Cloudy
4:16 PM 33.8 °F 22.5 °F 23.0 °F 65% 29.85 in 10.0 mi East 19.6 mph - N/A   Clear
4:36 PM 33.8 °F 22.8 °F 23.0 °F 65% 29.84 in 10.0 mi East 18.4 mph - N/A   Clear
4:56 PM 33.8 °F 22.5 °F 21.2 °F 60% 29.85 in 10.0 mi East 19.6 mph - N/A   Clear
5:16 PM 33.8 °F 21.9 °F 21.2 °F 60% 29.85 in 10.0 mi East 21.9 mph - N/A   Clear
5:36 PM 33.8 °F 21.6 °F 23.0 °F 65% 29.84 in 10.0 mi East 23.0 mph - N/A   Clear
5:56 PM 33.8 °F 22.2 °F 21.2 °F 60% 29.83 in 10.0 mi East 20.7 mph - N/A   Clear
6:16 PM 33.8 °F 23.2 °F 24.8 °F 70% 29.83 in 10.0 mi East 17.3 mph - N/A   Clear
6:36 PM 33.8 °F 22.8 °F 21.2 °F 60% 29.83 in 10.0 mi East 18.4 mph - N/A   Clear
6:56 PM 32.0 °F 22.1 °F 19.4 °F 60% 29.82 in 10.0 mi ENE 13.8 mph - N/A   Clear
7:16 PM 33.8 °F 22.5 °F 23.0 °F 65% 29.81 in 10.0 mi ENE 19.6 mph - N/A   Clear
7:36 PM 33.8 °F 22.8 °F 23.0 °F 65% 29.81 in 10.0 mi ENE 18.4 mph - N/A   Clear
7:56 PM 33.8 °F 22.2 °F 21.2 °F 60% 29.80 in 10.0 mi ENE 20.7 mph - N/A   Clear
8:16 PM 33.8 °F 23.5 °F 23.0 °F 65% 29.79 in 10.0 mi ENE 16.1 mph - N/A   Clear
8:36 PM 33.8 °F 22.5 °F 24.8 °F 70% 29.78 in 10.0 mi ENE 19.6 mph - N/A   Clear
8:56 PM 33.8 °F 22.5 °F 21.2 °F 60% 29.77 in 10.0 mi ENE 19.6 mph 23.0 mph N/A   Clear
9:16 PM 33.8 °F 22.5 °F 21.2 °F 60% 29.76 in 10.0 mi ENE 19.6 mph - N/A   Clear
9:36 PM 30.2 °F 16.8 °F 23.0 °F 75% 29.74 in 10.0 mi ENE 23.0 mph - N/A   Clear
9:56 PM 30.2 °F 16.8 °F 21.2 °F 69% 29.73 in 10.0 mi ENE 23.0 mph - N/A   Mostly Cloudy
10:16 PM 32.0 °F 19.5 °F 21.2 °F 64% 29.72 in 10.0 mi ENE 21.9 mph - N/A   Overcast
10:36 PM 32.0 °F 20.5 °F 21.2 °F 64% 29.72 in 10.0 mi ENE 18.4 mph - N/A   Overcast
10:56 PM 32.0 °F 19.5 °F 21.2 °F 64% 29.70 in 10.0 mi NE 21.9 mph - N/A   Overcast
11:16 PM 33.8 °F 21.3 °F 21.2 °F 60% 29.68 in 10.0 mi NE 24.2 mph - N/A   Overcast
11:36 PM 30.2 °F 17.1 °F 23.0 °F 75% 29.67 in 10.0 mi NE 21.9 mph - N/A   Overcast
11:56 PM 32.0 °F 18.9 °F 23.0 °F 69% 29.66 in 10.0 mi NE 24.2 mph - N/A   Overcast